Brainerd, MN

3:41 AM CDT on September 25, 2017 (GMT -0500)
Brainerd-Crow Wing County Regional

Weather History for KBRD - September, 2013

Change the Weather History Date:

Saturday, September 7, 2013

  Actual Average Record
Temperature  
Mean Temperature 78 °F 62 °F  
Max Temperature 88 °F 72 °F 92 °F (2003)
Min Temperature 66 °F 50 °F 35 °F (1986)
Degree Days  
Heating Degree Days 0 5  
Month to date heating degree days 28  
Cooling Degree Days 12 2  
Month to date cooling degree days 14  
Growing Degree Days 28 (Base 50)    
Moisture  
Dew Point 66 °F    
Average Humidity 79    
Maximum Humidity 94    
Minimum Humidity 48    
Precipitation  
Precipitation 0.00 in 0.11 in 2.75 in (1964)
Month to date precipitation 0.76  
Snow  
Snow 0.00 in 0.00 in - ()
Month to date snowfall 0.0  
Snow Depth -    
Sea Level Pressure  
Sea Level Pressure 29.95 in    
Wind  
Wind Speed 3 mph (NE)    
Max Wind Speed 13 mph    
Max Gust Speed -    
Visibility 5 miles    
Events Fog    
T = Trace of Precipitation, MM = Missing Value Source: NWS Daily Summary

Daily Weather History Graph

Daily Weather History Graph

Search for Another Location

Airport or City:

Trip Planner

Search our weather history database for the weather conditions in past years. The results will help you decide how hot, cold, wet, or windy it might be!

Date:

Astronomy

Sep. 07, 2013 Rise Set
Actual Time 6:44 AM CDT 7:43 PM CDT
Civil Twilight 6:14 AM CDT 8:13 PM CDT
Nautical Twilight 5:37 AM CDT 8:50 PM CDT
Astronomical Twilight 4:58 AM CDT 9:29 PM CDT
Moon 9:11 AM CDT (9/7) 8:29 PM CDT (9/7)
Length of Visible Light 13h 59m
Length of Day
12h 58m
Waxing Crescent, 5% of the Moon is Illuminated
Sep 7
Waxing Crescent
Sep 12
First Quarter
Sep 19
Full
Sep 26
Last Quarter
Oct 4
New

Hourly Weather History & Observations

Time (CDT) Temp. Heat Index Dew Point Humidity Pressure Visibility Wind Dir Wind Speed Gust Speed Precip Events Conditions
12:53 AM 73.9 °F - 69.1 °F 85% 29.87 in 9.0 mi North 4.6 mph - N/A   Clear
1:53 AM 72.0 °F - 68.0 °F 87% 29.88 in 8.0 mi Calm Calm - N/A   Clear
2:53 AM 71.1 °F - 68.0 °F 90% 29.88 in 6.0 mi Calm Calm - N/A   Clear
3:53 AM 70.0 °F - 66.9 °F 90% 29.88 in 2.5 mi Calm Calm - N/A   Clear
4:08 AM 69.8 °F - 68.0 °F 94% 29.91 in 1.0 mi Calm Calm - N/A   Clear
4:15 AM 69.8 °F - 66.2 °F 88% 29.90 in 0.5 mi Calm Calm - N/A Fog Fog
4:22 AM 68.0 °F - 66.2 °F 94% 29.90 in 2.0 mi Calm Calm - N/A   Clear
4:26 AM 68.0 °F - 66.2 °F 94% 29.90 in 1.2 mi Calm Calm - N/A   Clear
4:34 AM 69.8 °F - 66.2 °F 88% 29.90 in 0.8 mi Calm Calm - N/A   Clear
4:38 AM 69.8 °F - 66.2 °F 88% 29.90 in 1.8 mi NNE 3.5 mph - N/A   Clear
4:45 AM 68.0 °F - 66.2 °F 94% 29.90 in 2.0 mi Calm Calm - N/A   Clear
4:53 AM 69.1 °F - 66.9 °F 93% 29.88 in 5.0 mi Calm Calm - N/A   Clear
5:53 AM 70.0 °F - 66.9 °F 90% 29.91 in 5.0 mi North 3.5 mph - N/A   Clear
6:30 AM 69.8 °F - 68.0 °F 94% 29.93 in 1.5 mi Calm Calm - N/A   Clear
6:34 AM 69.8 °F - 66.2 °F 88% 29.93 in 0.8 mi NNE 3.5 mph - N/A   Clear
6:44 AM 68.0 °F - 66.2 °F 94% 29.93 in 0.2 mi Calm Calm - N/A Fog Fog
6:53 AM 69.1 °F - 66.0 °F 90% 29.91 in 0.2 mi Calm Calm - N/A Fog Fog
6:58 AM 69.8 °F - 66.2 °F 88% 29.94 in 1.2 mi NE 3.5 mph - N/A   Clear
7:01 AM 69.8 °F - 66.2 °F 88% 29.94 in 2.0 mi NNE 3.5 mph - N/A   Clear
7:13 AM 68.0 °F - 66.2 °F 94% 29.95 in 1.0 mi Calm Calm - N/A   Clear
7:20 AM 69.8 °F - 66.2 °F 88% 29.95 in 0.5 mi Calm Calm - N/A Fog Fog
7:27 AM 69.8 °F - 66.2 °F 88% 29.95 in 1.5 mi Calm Calm - N/A   Clear
7:35 AM 69.8 °F - 66.2 °F 88% 29.96 in 1.0 mi Calm Calm - N/A   Clear
7:45 AM 71.6 °F - 68.0 °F 88% 29.96 in 2.0 mi Calm Calm - N/A   Clear
7:53 AM 72.0 °F - 68.0 °F 87% 29.95 in 4.0 mi Calm Calm - N/A   Clear
8:53 AM 75.9 °F - 70.0 °F 82% 29.94 in 7.0 mi NE 5.8 mph - N/A   Clear
9:53 AM 81.0 °F 83.8 °F 68.0 °F 65% 29.94 in 10.0 mi ENE 4.6 mph - N/A   Clear
10:53 AM 82.0 °F 84.9 °F 68.0 °F 62% 29.96 in 10.0 mi NNE 4.6 mph - N/A   Clear
11:53 AM 82.9 °F 86.5 °F 69.1 °F 63% 29.97 in 10.0 mi North 3.5 mph - N/A   Clear
12:53 PM 86.0 °F 90.1 °F 69.1 °F 57% 29.97 in 10.0 mi North 8.1 mph - N/A   Mostly Cloudy
1:53 PM 86.0 °F 90.1 °F 69.1 °F 57% 29.97 in 10.0 mi North 12.7 mph - N/A   Scattered Clouds
2:53 PM 86.0 °F 89.4 °F 68.0 °F 55% 29.97 in 10.0 mi NE 8.1 mph - N/A   Partly Cloudy
3:53 PM 87.1 °F 88.9 °F 64.9 °F 48% 29.97 in 10.0 mi NNE 12.7 mph - N/A   Scattered Clouds
4:53 PM 87.1 °F 88.9 °F 64.9 °F 48% 29.97 in 10.0 mi NNE 11.5 mph - N/A   Partly Cloudy
5:53 PM 86.0 °F 87.3 °F 64.0 °F 48% 29.99 in 10.0 mi NNE 11.5 mph - N/A   Partly Cloudy
6:53 PM 81.0 °F 82.5 °F 64.0 °F 56% 30.01 in 10.0 mi NE 9.2 mph - N/A   Partly Cloudy
7:53 PM 75.9 °F - 64.0 °F 67% 30.02 in 10.0 mi NE 6.9 mph - N/A   Mostly Cloudy
8:53 PM 75.0 °F - 66.0 °F 73% 30.04 in 10.0 mi East 8.1 mph - N/A   Partly Cloudy
9:53 PM 71.1 °F - 63.0 °F 75% 30.06 in 10.0 mi ENE 6.9 mph - N/A   Partly Cloudy
10:53 PM 69.1 °F - 59.0 °F 70% 30.08 in 10.0 mi ENE 8.1 mph - N/A   Partly Cloudy
11:53 PM 66.9 °F - 57.9 °F 73% 30.10 in 10.0 mi ENE 5.8 mph - N/A   Overcast